EW8275 Weather Reports


Display with metric or nautical units.
time (UTC)temp
F
wind
direction
speed
MPH
gust
MPH
rain 1hr
in
rain 24hr
in
rain mn
in
humidity
%
barometer
mb
20260901205624 58 255 0.0 1.0 0.00 0.08 0.00 89 1019.9
20260901205130 58 254 0.0 2.0 0.00 0.08 0.00 89 1019.9
20260901204625 58 254 0.0 2.0 0.00 0.08 0.00 89 1020.0
20260901204116 58 255 0.0 1.0 0.00 0.08 0.00 90 1020.0
20260901203615 58 255 0.0 1.0 0.00 0.08 0.00 90 1019.9
20260901203123 58 255 0.0 1.0 0.00 0.08 0.00 90 1019.9
20260901202611 58 255 0.0 1.0 0.00 0.08 0.00 90 1019.9
20260901202117 57 255 0.0 1.0 0.00 0.08 0.00 90 1020.0
20260901201630 57 254 0.0 0.0 0.00 0.08 0.00 90 1020.0
20260901201115 57 255 0.0 0.0 0.00 0.08 0.00 90 1019.9
20260901200614 57 254 0.0 0.0 0.00 0.08 0.00 90 1019.8
20260901200124 57 254 0.0 0.0 0.00 0.08 0.00 89 1019.8
20260901195640 57 255 0.0 0.0 0.00 0.08 0.00 89 1019.8
20260901195128 57 254 0.0 0.0 0.00 0.08 0.00 89 1019.8
20260901194647 57 254 0.0 1.0 0.00 0.08 0.00 89 1019.8
20260901194134 58 254 0.0 1.0 0.00 0.08 0.00 89 1019.8
20260901193646 58 255 0.0 1.0 0.00 0.08 0.00 88 1019.8
20260901193119 58 255 0.0 1.0 0.00 0.08 0.00 88 1019.6
20260901192627 58 255 0.0 1.0 0.00 0.08 0.00 88 1019.6
20260901192127 58 255 0.0 0.0 0.00 0.08 0.00 87 1019.5
20260901191626 58 254 0.0 0.0 0.00 0.08 0.00 86 1019.5
20260901191105 59 255 0.0 0.0 0.00 0.08 0.00 86 1019.5
20260901190642 59 255 0.0 0.0 0.00 0.08 0.00 86 1019.5
20260901190124 59 254 0.0 0.0 0.00 0.08 0.00 85 1019.4
20260901185617 59 254 0.0 0.0 0.00 0.08 0.00 84 1019.4
20260901185114 59 254 0.0 1.0 0.00 0.08 0.00 83 1019.4
20260901184622 60 255 0.0 1.0 0.00 0.08 0.00 83 1019.4
20260901184126 60 255 0.0 2.0 0.00 0.08 0.00 82 1019.4
20260901183623 60 255 0.0 2.0 0.00 0.08 0.00 81 1019.5
20260901183112 61 346 0.0 1.0 0.00 0.08 0.00 81 1019.5
20260901182618 61 346 0.0 1.0 0.00 0.08 0.00 80 1019.4
20260901182131 61 346 0.0 1.0 0.00 0.08 0.00 79 1019.5
20260901181639 62 346 0.0 2.0 0.00 0.08 0.00 78 1019.4
20260901181109 62 346 1.0 2.0 0.00 0.08 0.00 77 1019.4
20260901180611 62 252 0.0 3.0 0.00 0.08 0.00 76 1019.4
20260901180126 63 333 1.0 3.0 0.00 0.08 0.00 77 1019.4
20260901175614 63 273 0.0 1.0 0.00 0.08 0.00 76 1019.4
20260901175109 63 273 0.0 2.0 0.00 0.08 0.00 74 1019.5
20260901174627 64 273 1.0 4.0 0.00 0.08 0.00 72 1019.5
20260901174119 64 244 1.0 5.0 0.00 0.08 0.00 72 1019.6
20260901173631 64 299 1.0 7.0 0.00 0.08 0.00 71 1019.6
20260901173120 64 270 2.0 7.0 0.00 0.08 0.00 72 1019.7
20260901172624 65 301 1.0 4.0 0.00 0.08 0.00 71 1019.7
20260901172111 65 316 2.0 4.0 0.00 0.08 0.00 70 1019.6
20260901171625 65 290 1.0 4.0 0.00 0.08 0.00 70 1019.6
20260901171136 65 287 1.0 4.0 0.00 0.08 0.00 70 1019.7
20260901170631 65 286 1.0 5.0 0.00 0.08 0.00 70 1019.8
20260901170109 66 286 1.0 6.0 0.00 0.08 0.00 68 1019.7
20260901165643 66 239 1.0 5.0 0.00 0.08 0.00 66 1019.7
20260901165130 66 311 2.0 5.0 0.00 0.08 0.00 66 1019.8
20260901164616 67 184 2.0 7.0 0.00 0.08 0.00 66 1019.7
20260901164126 67 55 1.0 7.0 0.00 0.08 0.00 66 1019.7
20260901163633 67 198 2.0 6.0 0.00 0.08 0.00 65 1019.6
20260901163127 67 290 2.0 6.0 0.00 0.08 0.00 67 1019.6
20260901162616 67 278 2.0 6.0 0.00 0.08 0.00 67 1019.6
20260901162121 67 285 2.0 5.0 0.00 0.08 0.00 66 1019.6
20260901161634 67 294 1.0 6.0 0.00 0.08 0.00 66 1019.6
20260901161114 67 226 2.0 8.0 0.00 0.08 0.00 66 1019.6
20260901160617 67 236 4.0 8.0 0.00 0.08 0.00 64 1019.6
20260901160126 68 300 2.0 6.0 0.00 0.08 0.00 64 1019.5
20260901155632 68 221 2.0 6.0 0.00 0.08 0.00 64 1019.4
20260901155122 68 289 2.0 7.0 0.00 0.08 0.00 63 1019.4
20260901154616 68 256 2.0 7.0 0.00 0.08 0.00 63 1019.4
20260901154122 68 261 1.0 7.0 0.00 0.08 0.00 62 1019.4
20260901153656 68 266 3.0 7.0 0.00 0.08 0.00 64 1019.4
20260901153109 68 238 2.0 5.0 0.00 0.08 0.00 62 1019.4
20260901152624 68 231 2.0 5.0 0.00 0.08 0.00 63 1019.3
20260901152118 68 269 1.0 6.0 0.00 0.08 0.00 65 1019.4
20260901151611 68 270 3.0 7.0 0.00 0.08 0.00 63 1019.3
20260901151123 68 295 2.0 7.0 0.00 0.08 0.00 61 1019.3
20260901150610 68 196 2.0 6.0 0.00 0.08 0.00 62 1019.3
20260901150109 69 219 2.0 5.0 0.00 0.08 0.00 60 1019.3
20260901145619 69 341 2.0 7.0 0.00 0.08 0.00 61 1019.3
20260901145154 69 273 3.0 8.0 0.00 0.08 0.00 61 1019.4
20260901144620 69 250 4.0 8.0 0.00 0.08 0.00 61 1019.4
20260901144126 69 269 2.0 7.0 0.00 0.08 0.00 61 1019.4
20260901143637 68 194 2.0 9.0 0.00 0.08 0.00 60 1019.4
20260901143125 69 278 3.0 9.0 0.00 0.08 0.00 59 1019.4
20260901142627 69 306 4.0 7.0 0.00 0.08 0.00 59 1019.4
20260901142114 70 237 1.0 7.0 0.00 0.08 0.00 63 1019.4
20260901141619 70 306 2.0 7.0 0.00 0.08 0.00 60 1019.4
20260901141125 70 250 3.0 8.0 0.00 0.08 0.00 60 1019.3
20260901140624 70 177 2.0 8.0 0.00 0.08 0.00 62 1019.4
20260901140110 71 259 2.0 6.0 0.00 0.08 0.00 61 1019.4
20260901135620 71 355 2.0 9.0 0.00 0.08 0.00 60 1019.3
20260901135123 71 325 3.0 9.0 0.00 0.08 0.00 60 1019.4
20260901134614 70 281 2.0 5.0 0.00 0.08 0.00 58 1019.4
20260901134121 71 321 2.0 9.0 0.00 0.08 0.00 59 1019.4
20260901133637 72 199 3.0 11.0 0.00 0.08 0.00 60 1019.4
20260901133123 72 347 5.0 11.0 0.00 0.08 0.00 58 1019.4
20260901132618 72 333 3.0 10.0 0.00 0.08 0.00 56 1019.4
20260901132145 72 289 3.0 10.0 0.00 0.08 0.00 56 1019.4
20260901131613 73 339 2.0 10.0 0.00 0.08 0.00 58 1019.3
20260901131108 72 229 4.0 10.0 0.00 0.08 0.00 55 1019.3
20260901130624 71 246 3.0 9.0 0.00 0.08 0.00 59 1019.4
20260901130129 70 253 3.0 7.0 0.00 0.08 0.00 61 1019.4
20260901125627 72 288 2.0 6.0 0.00 0.12 0.00 60 1019.3
20260901125135 72 237 3.0 9.0 0.00 0.12 0.00 59 1019.3
20260901124617 71 264 3.0 10.0 0.00 0.12 0.00 60 1019.4
20260901124105 70 348 3.0 10.0 0.00 0.12 0.00 59 1019.4
20260901123638 72 238 4.0 9.0 0.00 0.12 0.00 56 1019.5
20260901123132 74 308 2.0 6.0 0.00 0.12 0.00 58 1019.4
20260901122625 73 217 2.0 9.0 0.00 0.12 0.00 59 1019.4
20260901122110 71 262 5.0 9.0 0.00 0.12 0.00 60 1019.5
20260901121643 70 294 3.0 9.0 0.00 0.12 0.00 61 1019.5
20260901121122 71 273 3.0 9.0 0.00 0.12 0.00 60 1019.5
20260901120634 72 12 3.0 7.0 0.00 0.12 0.00 59 1019.5
20260901120112 71 326 4.0 9.0 0.00 0.12 0.00 59 1019.5
20260901115621 71 240 2.0 9.0 0.00 0.12 0.00 62 1019.5
20260901115157 72 9 3.0 13.0 0.00 0.12 0.00 57 1019.4
20260901114619 71 233 4.0 13.0 0.00 0.12 0.00 59 1019.4
20260901114127 71 24 3.0 7.0 0.00 0.12 0.00 56 1019.3
20260901113625 72 182 3.0 8.0 0.00 0.12 0.00 58 1019.3
20260901113136 71 184 4.0 8.0 0.00 0.12 0.00 62 1019.3
20260901112629 71 194 3.0 7.0 0.00 0.12 0.00 61 1019.3
20260901112117 70 298 3.0 7.0 0.00 0.12 0.00 63 1019.3
20260901111643 70 296 3.0 10.0 0.00 0.12 0.00 62 1019.3
20260901111109 70 275 4.0 10.0 0.00 0.12 0.00 63 1019.4
20260901110637 70 273 4.0 12.0 0.00 0.12 0.00 61 1019.3
20260901110115 71 302 5.0 12.0 0.00 0.12 0.00 60 1019.2
20260901105614 72 220 3.0 10.0 0.00 0.12 0.00 58 1019.2
20260901105111 72 285 5.0 9.0 0.00 0.12 0.00 62 1019.2
20260901104628 72 309 1.0 9.0 0.00 0.12 0.00 62 1019.2
20260901104134 73 295 4.0 9.0 0.00 0.12 0.00 58 1019.2
20260901103617 72 200 1.0 11.0 0.00 0.12 0.00 65 1019.2
20260901103117 71 254 3.0 7.0 0.00 0.12 0.00 64 1019.2
20260901102630 70 200 2.0 8.0 0.00 0.12 0.00 65 1019.2
20260901102110 70 355 4.0 13.0 0.00 0.12 0.00 66 1019.2
20260901101633 70 306 3.0 13.0 0.00 0.12 0.00 65 1019.1
20260901101110 70 328 3.0 8.0 0.00 0.12 0.00 65 1019.1
20260901100632 70 320 3.0 10.0 0.00 0.12 0.00 64 1019.1
20260901100117 71 260 4.0 10.0 0.00 0.12 0.00 64 1019.2
20260901095645 70 178 3.0 11.0 0.00 0.12 0.00 64 1019.1
20260901095105 70 244 4.0 11.0 0.00 0.12 0.00 67 1019.1
20260901094625 71 212 2.0 7.0 0.00 0.12 0.00 67 1019.0
20260901094159 70 180 2.0 8.0 0.00 0.12 0.00 67 1019.0
20260901093618 69 16 3.0 8.0 0.00 0.12 0.00 68 1019.1
20260901093107 69 202 3.0 6.0 0.00 0.12 0.00 68 1019.0
20260901092614 68 271 1.0 10.0 0.00 0.12 0.00 72 1018.9
20260901092113 67 236 2.0 10.0 0.00 0.12 0.00 70 1018.9
20260901091610 67 295 3.0 7.0 0.00 0.12 0.00 72 1018.9
20260901091115 68 251 2.0 8.0 0.00 0.12 0.00 73 1018.9
20260901090626 67 235 3.0 8.0 0.00 0.12 0.00 71 1018.8
20260901090113 67 273 4.0 7.0 0.00 0.12 0.00 73 1018.9
20260901085632 66 13 2.0 9.0 0.00 0.12 0.00 74 1018.8
20260901085139 66 232 3.0 9.0 0.00 0.12 0.00 76 1018.8
20260901084637 65 313 4.0 8.0 0.00 0.12 0.00 75 1018.8
20260901084114 65 250 2.0 10.0 0.00 0.12 0.00 76 1018.7
20260901083635 65 315 3.0 10.0 0.00 0.12 0.00 77 1018.7
20260901083135 65 294 3.0 7.0 0.00 0.12 0.00 78 1018.6
20260901082620 65 282 3.0 8.0 0.00 0.12 0.00 80 1018.6
20260901082126 65 274 2.0 8.0 0.00 0.12 0.00 81 1018.6
20260901081640 65 234 2.0 9.0 0.00 0.12 0.00 81 1018.5
20260901081116 64 299 3.0 8.0 0.00 0.12 0.00 80 1018.5
20260901080633 64 246 2.0 8.0 0.00 0.12 0.00 82 1018.4
20260901080143 63 244 2.0 9.0 0.00 0.12 0.00 83 1018.4
20260901075629 64 36 2.0 9.0 0.00 0.12 0.00 82 1018.4
20260901075117 63 328 3.0 9.0 0.00 0.12 0.00 84 1018.3
20260901074618 63 279 2.0 6.0 0.00 0.12 0.00 83 1018.2
20260901074130 63 336 3.0 5.0 0.00 0.12 0.00 84 1018.1
20260901073645 63 273 1.0 6.0 0.00 0.12 0.00 86 1018.1
20260901073122 63 294 2.0 6.0 0.00 0.12 0.00 87 1018.1
20260901072612 63 261 1.0 7.0 0.00 0.12 0.00 87 1018.0
20260901072122 62 254 1.0 3.0 0.00 0.12 0.00 88 1018.0
20260901071617 62 295 1.0 3.0 0.00 0.12 0.00 89 1018.0
20260901071200 62 287 2.0 4.0 0.00 0.12 0.00 89 1017.9
20260901070624 62 223 1.0 6.0 0.00 0.12 0.00 90 1017.9
20260901070124 62 267 1.0 6.0 0.00 0.12 0.00 91 1017.8
20260901065621 62 275 1.0 5.0 0.00 0.16 0.00 92 1017.7
20260901065106 62 254 1.0 4.0 0.00 0.16 0.00 93 1017.7
20260901064609 61 255 1.0 4.0 0.00 0.16 0.00 94 1017.7
20260901064108 61 263 1.0 3.0 0.00 0.16 0.00 94 1017.6
20260901063624 61 262 0.0 6.0 0.00 0.16 0.00 94 1017.7
20260901063135 61 281 0.0 6.0 0.00 0.16 0.00 94 1017.7
20260901062625 61 183 1.0 4.0 0.00 0.16 0.00 95 1017.6
20260901062143 61 215 0.0 2.0 0.00 0.16 0.00 95 1017.6
20260901061634 61 246 1.0 2.0 0.00 0.16 0.00 95 1017.5
20260901061109 61 165 1.0 2.0 0.00 0.16 0.00 95 1017.5
20260901060625 61 225 0.0 3.0 0.00 0.16 0.00 95 1017.5
20260901060105 61 225 1.0 3.0 0.00 0.16 0.00 95 1017.4
20260901055627 61 225 1.0 4.0 0.00 0.31 0.00 95 1017.3
20260901055110 61 202 1.0 4.0 0.00 0.31 0.00 95 1017.3
20260901054641 61 227 1.0 3.0 0.00 0.31 0.00 95 1017.3
20260901054150 61 215 1.0 4.0 0.00 0.31 0.00 95 1017.3
20260901053613 61 211 2.0 4.0 0.00 0.31 0.00 95 1017.3
20260901053114 61 211 2.0 3.0 0.00 0.31 0.00 95 1017.2
20260901052621 60 193 1.0 3.0 0.00 0.31 0.00 95 1017.1
20260901052121 60 208 1.0 3.0 0.00 0.31 0.00 95 1017.0
20260901051628 60 208 2.0 3.0 0.00 0.31 0.00 95 1017.0
20260901051111 60 228 1.0 3.0 0.00 0.31 0.00 95 1016.8
20260901050612 60 228 1.0 3.0 0.00 0.31 0.00 95 1016.8
20260901050125 60 209 1.0 3.0 0.00 0.31 0.00 95 1016.8
20260901045626 60 209 1.0 3.0 0.00 0.31 0.00 95 1016.8
20260901045118 60 209 1.0 2.0 0.00 0.31 0.00 95 1016.9
20260901044627 60 209 1.0 3.0 0.00 0.31 0.00 96 1016.9
20260901044106 60 209 1.0 3.0 0.00 0.31 0.00 96 1016.9
20260901043614 60 209 1.0 3.0 0.00 0.31 0.00 96 1016.8
20260901043141 59 209 1.0 3.0 0.00 0.31 0.00 96 1016.7
20260901042640 59 209 1.0 2.0 0.00 0.31 0.00 96 1016.6
20260901042112 59 209 0.0 3.0 0.00 0.31 0.00 95 1016.6
20260901041619 59 209 1.0 2.0 0.00 0.31 0.00 95 1016.6
20260901041134 59 209 1.0 2.0 0.00 0.31 0.00 95 1016.4
20260901040612 60 209 0.0 2.0 0.00 0.31 0.00 96 1016.3
20260901040125 60 209 0.0 3.0 0.00 0.31 0.00 95 1016.4
20260901035640 60 209 1.0 3.0 0.00 0.31 0.00 95 1016.5
20260901035122 59 178 1.0 2.0 0.00 0.31 0.00 95 1016.5
20260901034619 59 178 0.0 2.0 0.00 0.31 0.00 96 1016.4
20260901034150 59 231 1.0 2.0 0.00 0.31 0.00 95 1016.5
20260901033631 59 231 1.0 2.0 0.00 0.31 0.00 95 1016.5
20260901033105 59 231 1.0 2.0 0.00 0.31 0.00 95 1016.5
20260901032631 59 231 1.0 2.0 0.00 0.31 0.00 95 1016.4
20260901032106 59 231 1.0 2.0 0.00 0.31 0.00 95 1016.4
20260901031631 59 231 0.0 3.0 0.00 0.31 0.00 95 1016.4
20260901031155 59 231 1.0 3.0 0.00 0.31 0.00 95 1016.4
20260901030626 59 231 1.0 2.0 0.00 0.31 0.00 95 1016.4
20260901030116 59 231 0.0 1.0 0.00 0.31 0.00 95 1016.4
20260901025610 59 231 0.0 1.0 0.00 0.31 0.00 95 1016.4
20260901025125 59 231 0.0 1.0 0.00 0.31 0.00 94 1016.3
20260901024632 59 231 0.0 1.0 0.00 0.31 0.00 94 1016.2
20260901024111 59 231 0.0 2.0 0.00 0.31 0.00 94 1016.1
20260901023640 59 231 0.0 3.0 0.00 0.31 0.00 94 1016.1
20260901023114 60 231 1.0 3.0 0.00 0.31 0.00 95 1016.1
20260901022618 59 203 1.0 2.0 0.00 0.31 0.00 95 1016.2
20260901022108 60 203 1.0 2.0 0.00 0.31 0.00 94 1016.1
20260901021616 60 203 1.0 3.0 0.00 0.31 0.00 94 1016.2
20260901021108 60 203 1.0 3.0 0.00 0.31 0.00 94 1016.2
20260901020625 60 212 1.0 3.0 0.00 0.31 0.00 94 1016.2
20260901020146 60 212 1.0 2.0 0.00 0.31 0.00 94 1016.2
20260901015641 60 212 1.0 3.0 0.00 0.31 0.00 94 1016.2
20260901015124 60 202 1.0 4.0 0.00 0.31 0.00 94 1016.2
20260901014612 60 200 2.0 3.0 0.00 0.31 0.00 94 1016.1
20260901014123 60 200 1.0 3.0 0.00 0.31 0.00 94 1016.1
20260901013638 59 200 1.0 2.0 0.00 0.31 0.00 94 1016.1
20260901013113 59 200 1.0 2.0 0.00 0.31 0.00 94 1016.0
20260901012650 59 200 1.0 2.0 0.00 0.31 0.00 94 1016.0
20260901012108 59 200 1.0 3.0 0.00 0.31 0.00 94 1016.0
20260901011618 59 200 1.0 3.0 0.00 0.31 0.00 94 1016.0
20260901011110 59 200 1.0 3.0 0.00 0.31 0.00 94 1016.0
20260901010644 59 200 1.0 2.0 0.00 0.31 0.00 94 1016.0
20260901010136 59 200 1.0 2.0 0.00 0.31 0.00 94 1016.0
20260901005638 59 200 0.0 3.0 0.00 0.31 0.00 94 1015.9
20260901005132 59 200 1.0 3.0 0.00 0.31 0.00 94 1016.0
20260901004616 59 219 2.0 4.0 0.00 0.31 0.00 94 1016.0
20260901004154 59 206 2.0 4.0 0.00 0.31 0.00 94 1016.0
20260901003613 59 220 2.0 4.0 0.00 0.31 0.00 94 1015.9
20260901003123 59 225 2.0 4.0 0.00 0.31 0.00 93 1015.9
20260901002631 59 225 1.0 3.0 0.00 0.31 0.00 93 1015.8
20260901002140 59 225 1.0 3.0 0.00 0.31 0.00 93 1015.9
20260901001658 59 225 1.0 4.0 0.00 0.31 0.00 93 1015.8
20260901001110 59 205 2.0 4.0 0.00 0.31 0.00 93 1015.8
20260901000626 59 215 1.0 3.0 0.00 0.31 0.00 93 1015.8
20260901000107 59 206 1.0 3.0 0.00 0.31 0.00 93 1015.8
20260831235623 59 223 2.0 4.0 0.00 0.31 0.00 93 1015.7
20260831235115 59 219 2.0 4.0 0.00 0.31 0.00 93 1015.8
20260831234638 59 206 1.0 4.0 0.00 0.31 0.00 93 1015.8
20260831234110 59 214 2.0 4.0 0.00 0.31 0.00 93 1015.7
20260831233651 59 211 2.0 4.0 0.00 0.31 0.00 93 1015.7
20260831233116 59 204 3.0 5.0 0.00 0.31 0.00 93 1015.6
20260831232635 59 215 2.0 5.0 0.00 0.31 0.00 93 1015.6
20260831232120 59 234 1.0 4.0 0.00 0.31 0.00 93 1015.5
20260831231636 59 216 2.0 4.0 0.00 0.31 0.00 93 1015.5
20260831231106 59 193 1.0 3.0 0.00 0.31 0.00 93 1015.5
20260831230623 59 182 1.0 3.0 0.00 0.31 0.00 93 1015.5
20260831230127 59 217 1.0 4.0 0.00 0.31 0.00 93 1015.4
20260831225612 60 217 1.0 4.0 0.00 0.31 0.00 93 1015.5
20260831225105 60 214 1.0 4.0 0.04 0.31 0.00 93 1015.5
20260831224633 60 213 1.0 5.0 0.08 0.31 0.00 93 1015.4
20260831224142 60 205 2.0 5.0 0.08 0.31 0.00 93 1015.4
20260831223625 60 275 1.0 2.0 0.08 0.31 0.00 93 1015.3
20260831223116 60 275 0.0 1.0 0.08 0.31 0.00 92 1015.2
20260831222629 60 275 0.0 1.0 0.08 0.31 0.00 92 1015.1
20260831222139 61 275 0.0 0.0 0.08 0.31 0.00 91 1015.1
20260831221621 61 275 0.0 0.0 0.08 0.31 0.00 91 1015.2
20260831221130 61 275 0.0 1.0 0.08 0.31 0.00 90 1015.1
20260831220606 61 275 0.0 2.0 0.08 0.31 0.00 90 1015.1
20260831220145 62 275 0.0 2.0 0.08 0.31 0.00 89 1015.2
20260831215638 62 275 1.0 7.0 0.04 0.28 0.06 88 1015.3
20260831215120 63 287 1.0 10.0 0.04 0.28 0.06 87 1015.4
20260831214614 64 299 4.0 12.0 0.00 0.24 0.05 87 1015.6
20260831214137 64 226 3.0 11.0 0.00 0.24 0.05 88 1015.3
20260831213620 64 230 1.0 4.0 0.00 0.24 0.05 88 1015.0
20260831213125 64 244 0.0 5.0 0.00 0.24 0.05 87 1015.0
20260831212630 64 219 3.0 5.0 0.00 0.24 0.05 87 1014.9
20260831212126 64 221 2.0 6.0 0.00 0.24 0.05 87 1014.9
20260831211615 64 224 3.0 7.0 0.00 0.24 0.05 87 1014.8
20260831211144 64 206 3.0 7.0 0.00 0.24 0.05 86 1014.8
20260831210633 64 227 1.0 6.0 0.00 0.24 0.05 85 1014.8
20260831210125 64 228 2.0 6.0 0.00 0.24 0.05 85 1014.7